Weather in Hang Dong

Thailand     18°41′13″N   98°54′56″E
temp.,
°C
wind,
m/s
gust,
m/s
humid.,
%
clouds,
%
prec.,
mm/h
press.,
hPa
HPBL,
m
9 december, thu
thu901:00+18nnw11841 0.0 101744
04:00+17nnw12875 0.0 101745
07:00+17nnw118888 0.0 101943
10:00+24ne115936 0.0 1020480
13:00+28s12434 0.0 10171216
16:00+27wsw22480 0.0 1015952
19:00+21sw11725 0.0 101627
22:00+20nw11770 0.0 101823
10 december, fri
fri1001:00+18nnw11810 0.0 101834
04:00+17nnw11845 0.0 101735
07:00+17nnw11863 0.0 101837
10:00+24ene00600 0.0 1019492
13:00+28s11480 0.0 10151120
16:00+27ssw11510 0.0 1012912
19:00+22wsw11740 0.0 101419
22:00+20wnw11770 0.0 101620
11 december, sat
sat1101:00+19nnw11820 0.0 101630
04:00+18nnw11860 0.0 101530
07:00+18nnw11890 0.0 101630
10:00+24se11631 0.0 1018530
13:00+28ssw22515 0.0 10141151
16:00+28ssw11525 0.0 1012963
19:00+22wsw11735 0.0 101416
22:00+21n11785 0.0 101616
12 december, sun
sun1201:00+20wnw00848 0.0 101620
04:00+19nw00893 0.0 101521
07:00+18wnw009128 0.0 101722
10:00+24se016754 0.0 1018493
13:00+28sw125121 0.0 10141317
16:00+27s225973 0.0 1012627
19:00+23wnw117317 0.0 101411
22:00+21wnw00796 0.0 101613
13 december, mon
mon1301:00+19w118512 0.0 101616
04:00+18nnw11896 0.0 101520
07:00+18nnw11910 0.0 101637
10:00+25sse01620 0.0 1017626
13:00+28ssw22484 0.0 10141472
16:00+27wsw225238 0.0 10121175
19:00+22sw127559 0.0 101389
22:00+20s007983 0.0 101417